Weather History for Tampa, FL

Change the Weather History Date:

Wednesday, June 4, 2014

  Actual Average Record
Temperature  
Mean Temperature 81 °F 82 °F  
Max Temperature 88 °F 90 °F 95 °F (1904)
Min Temperature 74 °F 74 °F 64 °F (1955)
Degree Days  
Heating Degree Days 0 0  
Month to date heating degree days 0 0  
Since 1 June heating degree days 0 0  
Since 1 July heating degree days 444 538  
Cooling Degree Days 16 17  
Month to date cooling degree days 61 65  
Year to date cooling degree days 884 942  
Since 1 June cooling degree days 61 65  
Growing Degree Days 30 (Base 50)    
Moisture  
Dew Point 62 °F    
Average Humidity 58    
Maximum Humidity 74    
Minimum Humidity 42    
Precipitation  
Precipitation 0.00 in 0.15 in 2.12 in (1968)
Month to date precipitation 0.01 0.55  
Year to date precipitation 19.34 12.75  
Sea Level Pressure  
Sea Level Pressure 29.98 in    
Wind  
Wind Speed 5 mph (ENE)    
Max Wind Speed 12 mph    
Max Gust Speed 20 mph    
Visibility 10 miles    
Events      
T = Trace of Precipitation, MM = Missing Value Source: NWS Daily Summary

Daily Weather History Graph

Daily Weather History Graph

Search for Another Location

Airport:

Trip Planner

Search our weather history database for the weather conditions in past years. The results will help you decide how hot, cold, wet, or windy it might be!

Date:

Astronomy

Jun. 04, 2014 Rise Set
Actual Time 6:33 AM EDT 8:23 PM EDT
Civil Twilight 6:07 AM EDT 8:50 PM EDT
Nautical Twilight 5:35 AM EDT 9:21 PM EDT
Astronomical Twilight 5:01 AM EDT 9:55 PM EDT
Moon 12:29 PM EDT (6/4) 12:42 AM EDT (6/4)
Length of Visible Light 14h 42m
Length of Day
13h 50m
Waxing Crescent, 39% of the Moon is Illuminated
Jun 4
Waxing Crescent
Jun 5
First Quarter
Jun 13
Full
Jun 19
Last Quarter
Jun 27
New

Hourly Weather History & Observations

Time (EDT) Temp. Heat Index Dew Point Humidity Pressure Visibility Wind Dir Wind Speed Gust Speed Precip Events Conditions
12:53 AM 75.9 °F - 62.1 °F 62% 30.01 in 10.0 mi ESE 6.9 mph - N/A   Overcast
1:53 AM 75.2 °F - 60.8 °F 61% 30.01 in 10.0 mi Variable 5.8 mph - N/A   Overcast
2:53 AM 75.0 °F - 61.0 °F 62% 29.99 in 10.0 mi East 4.6 mph - N/A   Overcast
3:53 AM 75.0 °F - 61.0 °F 62% 29.98 in 10.0 mi Variable 4.6 mph - N/A   Overcast
4:53 AM 73.9 °F - 61.0 °F 64% 29.98 in 10.0 mi ESE 3.5 mph - N/A   Overcast
5:53 AM 73.9 °F - 61.0 °F 64% 29.99 in 10.0 mi Variable 4.6 mph - N/A   Mostly Cloudy
6:53 AM 73.9 °F - 62.1 °F 66% 30.00 in 10.0 mi ESE 3.5 mph - N/A   Mostly Cloudy
7:53 AM 75.9 °F - 62.1 °F 62% 29.99 in 10.0 mi East 4.6 mph - N/A   Scattered Clouds
8:53 AM 77.0 °F - 61.0 °F 58% 30.01 in 10.0 mi ESE 6.9 mph - N/A   Partly Cloudy
9:53 AM 79.0 °F - 61.0 °F 54% 30.01 in 10.0 mi ESE 5.8 mph - N/A   Mostly Cloudy
10:53 AM 81.0 °F 81.7 °F 61.0 °F 50% 30.01 in 10.0 mi ESE 4.6 mph - N/A   Scattered Clouds
11:53 AM 82.9 °F 83.7 °F 62.1 °F 49% 30.01 in 10.0 mi NE 6.9 mph - N/A   Mostly Cloudy
12:53 PM 82.9 °F 83.3 °F 61.0 °F 47% 30.00 in 10.0 mi Calm Calm - N/A   Mostly Cloudy
1:53 PM 86.0 °F 85.7 °F 60.1 °F 41% 29.99 in 10.0 mi Variable 3.5 mph - N/A   Scattered Clouds
2:53 PM 84.0 °F 85.4 °F 64.0 °F 51% 29.97 in 10.0 mi West 10.4 mph - N/A   Mostly Cloudy
3:53 PM 84.9 °F 86.1 °F 64.0 °F 49% 29.96 in 10.0 mi WSW 9.2 mph - N/A   Mostly Cloudy
4:53 PM 84.9 °F 85.4 °F 62.1 °F 46% 29.95 in 10.0 mi WSW 8.1 mph - N/A   Scattered Clouds
5:53 PM 84.9 °F 85.9 °F 63.0 °F 48% 29.94 in 10.0 mi WNW 5.8 mph - N/A   Mostly Cloudy
6:53 PM 82.0 °F 83.4 °F 64.0 °F 54% 29.93 in 10.0 mi NNW 9.2 mph - N/A   Scattered Clouds
7:53 PM 81.0 °F 82.5 °F 64.0 °F 56% 29.93 in 10.0 mi NW 8.1 mph - N/A   Partly Cloudy
8:53 PM 79.0 °F - 64.0 °F 60% 29.93 in 10.0 mi NW 5.8 mph - N/A   Partly Cloudy
9:53 PM 78.1 °F - 64.9 °F 64% 29.95 in 10.0 mi Calm Calm - N/A   Clear
10:53 PM 75.2 °F - 64.4 °F 69% 29.96 in 10.0 mi NNW 4.6 mph - N/A   Clear
11:53 PM 75.9 °F - 66.0 °F 71% 29.96 in 10.0 mi Calm Calm - N/A   Clear